Regional Weather Roundup
Issued by NWS Sioux Falls, SD

Home | Current Version | Previous Version | Text Only | Print | Product List | Glossary Off
Versions: 1 2 3 4 5 6 7 8 9 10 11 12 13 14 15 16 17 18 19 20 21 22 23 24 25 26 27 28 29 30 31 32 33 34 35 36 37 38 39 40 41 42 43 44 45 46 47 48 49 50

000
ASUS43 KFSD 221502
RWRFSD

WEATHER ROUNDUP FOR SE SOUTH DAKOTA/SW MINNESOTA/NW IOWA
NATIONAL WEATHER SERVICE SIOUX FALLS SD
1000 AM CDT WED MAR 22 2017

NOTE: "FAIR" INDICATES FEW OR NO CLOUDS BELOW 12,000 FEET WITH NO
SIGNIFICANT WEATHER AND OR OBSTRUCTIONS TO VISIBILITY.


SDZ038>040-050-052>070-221600-
SOUTHEAST SOUTH DAKOTA

CITY           SKY/WX    TMP DP  RH WIND       PRES   REMARKS
BROOKINGS      CLOUDY    27  15  61 S20       30.38S WCI  13
CHAMBERLAIN    CLOUDY    32  29  87 SE20G28   30.25F WCI  20
HURON          CLOUDY    30  16  56 SE24G32   30.31F WCI  16
MADISON        CLOUDY    27  16  63 S18G25    30.37S WCI  13
MITCHELL       CLOUDY    31  19  61 S20       30.36S WCI  19
SIOUX FALLS    CLOUDY    30  16  56 SE14      30.41S WCI  19
WINNER         FAIR      35  29  78 SE22G31   30.21S WCI  23
YANKTON        CLOUDY    30  19  64 SE16      30.38F WCI  19
$$

MNZ071-072-080-081-089-090-097-098-221600-
SOUTHWEST MINNESOTA

CITY           SKY/WX    TMP DP  RH WIND       PRES   REMARKS
FAIRMONT       MOSUNNY   29  18  63 SE21      30.48F WCI  16
JACKSON        CLOUDY    28  18  64 SE16      30.46S WCI  17
LUVERNE        CLOUDY    28  16  59 SE13      30.43R WCI  18
MARSHALL       CLOUDY    27  17  66 SE15      30.45F WCI  15
MONTEVIDEO     CLOUDY    27  14  59 S16       30.47F WCI  14
PIPESTONE      CLOUDY    28  10  47 S17G23    30.38F WCI  16
REDWOOD FALLS  CLOUDY    28  12  51 SE18      30.48S WCI  15
TRACY          CLOUDY    28  18  65 SE15G21   30.44F WCI  17
WINDOM         CLOUDY    27  16  63 SE15      30.45S WCI  15
WORTHINGTON    CLOUDY    27  17  66 SE18      30.42S WCI  14
$$

IAZ001>003-012>014-020>022-031-032-NEZ013-014-SDZ071-221600-
NORTHWEST IOWA

CITY           SKY/WX    TMP DP  RH WIND       PRES   REMARKS
CHEROKEE       CLOUDY    30  18  59 SE14      30.46R WCI  20
DENISON        CLOUDY    32  19  59 SE10G21   30.42R WCI  24
ESTHERVILLE    CLOUDY    27  19  72 SE20      30.46S WCI  13
LE MARS        CLOUDY    30  18  59 SE12      30.44S WCI  21
ORANGE CITY    CLOUDY    28  18  64 SE13      30.42F WCI  18
SHELDON        CLOUDY    28  21  74 SE18      30.41F WCI  16
SIOUX CITY     CLOUDY    31  19  61 SE14      30.43S WCI  21
SPENCER        CLOUDY    29  18  63 SE16      30.46R WCI  17
STORM LAKE     CLOUDY    30  19  64 SE16G22   30.43R WCI  19
$$

ABBREVIATIONS USED IN REMARKS
   TC - TEMPERATURE IN CELSIUS
  WCI - WIND CHILL INDEX
   HX - HEAT INDEX
  VSB - VISIBILITY





USA.gov is the U.S. government's official web portal to all federal, state and local government web resources and services.